| time (UTC) | temp F | wind direction | speed knots | gust knots | rain 1hr in | rain 24hr in | rain mn in | humidity % | barometer mb |
| 20260506025525 | 68 | 262 | 0.9 | 7.8 | 0.00 | 0.28 | 0.14 | 36 | 1013.2 |
| 20260506025024 | 68 | 277 | 2.6 | 7.0 | 0.00 | 0.28 | 0.14 | 35 | 1013.0 |
| 20260506024520 | 68 | 262 | 2.6 | 7.8 | 0.00 | 0.28 | 0.14 | 35 | 1013.1 |
| 20260506024016 | 68 | 271 | 3.5 | 7.8 | 0.00 | 0.28 | 0.14 | 34 | 1012.9 |
| 20260506023532 | 68 | 270 | 0.9 | 7.0 | 0.00 | 0.28 | 0.14 | 34 | 1012.7 |
| 20260506023027 | 68 | 267 | 1.7 | 7.8 | 0.00 | 0.28 | 0.14 | 33 | 1012.7 |
| 20260506022523 | 69 | 276 | 1.7 | 9.6 | 0.00 | 0.28 | 0.14 | 31 | 1012.6 |
| 20260506022019 | 69 | 279 | 3.5 | 9.6 | 0.00 | 0.28 | 0.14 | 31 | 1012.5 |
| 20260506021518 | 69 | 273 | 2.6 | 12.2 | 0.00 | 0.28 | 0.14 | 31 | 1012.2 |
| 20260506021014 | 69 | 273 | 5.2 | 12.2 | 0.00 | 0.28 | 0.14 | 31 | 1012.1 |
| 20260506020531 | 69 | 292 | 4.3 | 10.4 | 0.00 | 0.28 | 0.14 | 30 | 1012.0 |
| 20260506020039 | 70 | 279 | 3.5 | 10.4 | 0.00 | 0.28 | 0.14 | 30 | 1011.9 |
| 20260506015520 | 70 | 281 | 2.6 | 11.3 | 0.00 | 0.30 | 0.14 | 33 | 1011.9 |
| 20260506015015 | 70 | 250 | 2.6 | 9.6 | 0.00 | 0.30 | 0.14 | 31 | 1011.9 |
| 20260506014531 | 70 | 226 | 4.3 | 11.3 | 0.00 | 0.30 | 0.14 | 31 | 1011.9 |
| 20260506014027 | 70 | 263 | 5.2 | 12.2 | 0.00 | 0.30 | 0.14 | 31 | 1011.9 |
| 20260506013527 | 71 | 258 | 6.1 | 13.9 | 0.00 | 0.30 | 0.14 | 30 | 1011.8 |
| 20260506013022 | 71 | 277 | 5.2 | 13.9 | 0.00 | 0.30 | 0.14 | 31 | 1011.8 |
| 20260506012518 | 71 | 286 | 7.0 | 13.9 | 0.00 | 0.30 | 0.14 | 32 | 1011.8 |
| 20260506012014 | 71 | 255 | 5.2 | 11.3 | 0.00 | 0.30 | 0.14 | 32 | 1011.8 |
| 20260506011530 | 71 | 280 | 6.1 | 12.2 | 0.00 | 0.30 | 0.14 | 32 | 1011.8 |
| 20260506011026 | 71 | 285 | 6.1 | 14.8 | 0.00 | 0.30 | 0.14 | 32 | 1011.8 |
| 20260506010521 | 71 | 267 | 7.0 | 14.8 | 0.00 | 0.30 | 0.14 | 32 | 1011.7 |
| 20260506010032 | 72 | 274 | 7.8 | 13.0 | 0.00 | 0.30 | 0.14 | 32 | 1011.6 |
| 20260506005514 | 72 | 241 | 4.3 | 11.3 | 0.00 | 0.30 | 0.14 | 31 | 1011.7 |
| 20260506005029 | 72 | 250 | 2.6 | 11.3 | 0.00 | 0.30 | 0.14 | 31 | 1011.6 |
| 20260506004525 | 72 | 266 | 7.0 | 12.2 | 0.00 | 0.30 | 0.14 | 30 | 1011.5 |
| 20260506004021 | 73 | 269 | 7.0 | 13.0 | 0.00 | 0.30 | 0.14 | 30 | 1011.4 |
| 20260506003517 | 72 | 282 | 4.3 | 13.0 | 0.00 | 0.30 | 0.14 | 29 | 1011.4 |
| 20260506003013 | 73 | 250 | 6.1 | 12.2 | 0.00 | 0.30 | 0.14 | 29 | 1011.4 |
| 20260506002513 | 74 | 248 | 7.8 | 13.0 | 0.00 | 0.30 | 0.14 | 29 | 1011.4 |
| 20260506002029 | 74 | 256 | 7.0 | 14.8 | 0.00 | 0.30 | 0.14 | 27 | 1011.4 |
| 20260506001525 | 74 | 284 | 5.2 | 14.8 | 0.00 | 0.30 | 0.14 | 28 | 1011.4 |
| 20260506001022 | 74 | 250 | 6.1 | 13.0 | 0.00 | 0.30 | 0.14 | 27 | 1011.3 |
| 20260506000517 | 75 | 227 | 5.2 | 13.0 | 0.00 | 0.30 | 0.14 | 27 | 1011.3 |
| 20260506000045 | 76 | 290 | 5.2 | 13.9 | 0.00 | 0.30 | 0.14 | 28 | 1011.2 |
| 20260505235526 | 76 | 277 | 7.0 | 13.9 | 0.00 | 0.30 | 0.14 | 26 | 1011.2 |
| 20260505235026 | 76 | 269 | 7.0 | 13.9 | 0.00 | 0.30 | 0.14 | 26 | 1011.0 |
| 20260505234522 | 77 | 266 | 4.3 | 10.4 | 0.00 | 0.30 | 0.14 | 26 | 1011.0 |
| 20260505234018 | 75 | 232 | 4.3 | 13.9 | 0.00 | 0.30 | 0.14 | 26 | 1010.9 |
| 20260505233513 | 75 | 280 | 5.2 | 13.9 | 0.00 | 0.30 | 0.14 | 25 | 1010.9 |
| 20260505233029 | 76 | 225 | 5.2 | 13.9 | 0.00 | 0.30 | 0.14 | 25 | 1010.9 |
| 20260505232525 | 77 | 252 | 5.2 | 11.3 | 0.00 | 0.30 | 0.14 | 26 | 1011.0 |
| 20260505232021 | 76 | 262 | 5.2 | 11.3 | 0.00 | 0.30 | 0.14 | 26 | 1010.9 |
| 20260505231521 | 77 | 268 | 5.2 | 11.3 | 0.00 | 0.30 | 0.14 | 26 | 1011.0 |
| 20260505231017 | 77 | 219 | 4.3 | 13.0 | 0.00 | 0.30 | 0.14 | 24 | 1010.9 |
| 20260505230532 | 77 | 233 | 7.8 | 12.2 | 0.00 | 0.30 | 0.14 | 24 | 1011.0 |
| 20260505230040 | 76 | 258 | 5.2 | 13.0 | 0.00 | 0.30 | 0.14 | 25 | 1011.0 |
| 20260505225521 | 77 | 246 | 7.8 | 16.5 | 0.00 | 0.30 | 0.14 | 24 | 1011.0 |
| 20260505225016 | 78 | 262 | 6.1 | 16.5 | 0.00 | 0.30 | 0.14 | 26 | 1011.0 |
| 20260505224532 | 75 | 227 | 6.1 | 13.9 | 0.00 | 0.30 | 0.14 | 27 | 1010.9 |
| 20260505224027 | 76 | 226 | 7.0 | 13.9 | 0.00 | 0.30 | 0.14 | 25 | 1011.0 |
| 20260505223527 | 77 | 242 | 5.2 | 12.2 | 0.00 | 0.30 | 0.14 | 26 | 1011.0 |
| 20260505223023 | 76 | 205 | 7.0 | 12.2 | 0.00 | 0.30 | 0.14 | 28 | 1011.2 |
| 20260505222519 | 75 | 213 | 3.5 | 12.2 | 0.00 | 0.30 | 0.14 | 28 | 1011.3 |
| 20260505222015 | 74 | 256 | 4.3 | 19.1 | 0.00 | 0.30 | 0.14 | 30 | 1011.3 |
| 20260505221531 | 74 | 213 | 10.4 | 19.1 | 0.00 | 0.30 | 0.14 | 28 | 1011.3 |
| 20260505221026 | 75 | 273 | 6.1 | 16.5 | 0.00 | 0.30 | 0.14 | 30 | 1011.3 |
| 20260505220522 | 77 | 257 | 7.8 | 16.5 | 0.00 | 0.30 | 0.14 | 27 | 1011.5 |
| 20260505220034 | 76 | 292 | 8.7 | 14.8 | 0.00 | 0.30 | 0.14 | 29 | 1011.4 |
| 20260505215515 | 75 | 208 | 7.0 | 13.9 | 0.00 | 0.30 | 0.14 | 30 | 1011.4 |
| 20260505215031 | 73 | 220 | 5.2 | 13.9 | 0.00 | 0.30 | 0.14 | 31 | 1011.7 |
| 20260505214527 | 75 | 234 | 4.3 | 13.0 | 0.00 | 0.30 | 0.14 | 30 | 1011.9 |
| 20260505214022 | 75 | 127 | 4.3 | 13.0 | 0.00 | 0.30 | 0.14 | 29 | 1011.9 |
| 20260505213518 | 76 | 228 | 5.2 | 13.9 | 0.00 | 0.30 | 0.14 | 29 | 1011.9 |
| 20260505213014 | 76 | 233 | 7.0 | 13.9 | 0.00 | 0.30 | 0.14 | 29 | 1012.1 |
| 20260505212513 | 76 | 204 | 4.3 | 14.8 | 0.00 | 0.30 | 0.14 | 30 | 1012.2 |
| 20260505212029 | 75 | 246 | 8.7 | 15.6 | 0.00 | 0.30 | 0.14 | 30 | 1012.1 |
| 20260505211524 | 76 | 206 | 9.6 | 16.5 | 0.00 | 0.30 | 0.14 | 29 | 1012.3 |
| 20260505211020 | 76 | 227 | 11.3 | 16.5 | 0.00 | 0.30 | 0.14 | 27 | 1012.4 |
| 20260505210516 | 77 | 235 | 6.1 | 17.4 | 0.00 | 0.30 | 0.14 | 29 | 1012.1 |
| 20260505210044 | 75 | 229 | 9.6 | 17.4 | 0.00 | 0.30 | 0.14 | 30 | 1012.3 |
| 20260505205525 | 75 | 250 | 7.0 | 17.4 | 0.00 | 0.30 | 0.14 | 30 | 1012.3 |
| 20260505205025 | 75 | 204 | 7.0 | 19.1 | 0.00 | 0.30 | 0.14 | 29 | 1012.4 |
| 20260505204521 | 76 | 246 | 8.7 | 19.1 | 0.00 | 0.30 | 0.14 | 29 | 1012.4 |
| 20260505204017 | 76 | 239 | 8.7 | 17.4 | 0.00 | 0.30 | 0.14 | 28 | 1012.4 |
| 20260505203513 | 76 | 257 | 9.6 | 18.2 | 0.00 | 0.30 | 0.14 | 29 | 1012.4 |
| 20260505203029 | 76 | 281 | 9.6 | 19.1 | 0.00 | 0.30 | 0.14 | 29 | 1012.4 |
| 20260505202525 | 75 | 244 | 9.6 | 19.1 | 0.00 | 0.30 | 0.14 | 28 | 1012.3 |
| 20260505202020 | 76 | 276 | 6.1 | 21.7 | 0.00 | 0.30 | 0.14 | 27 | 1012.3 |
| 20260505201520 | 76 | 242 | 9.6 | 22.6 | 0.00 | 0.30 | 0.14 | 27 | 1012.4 |
| 20260505201016 | 75 | 280 | 13.0 | 22.6 | 0.00 | 0.30 | 0.14 | 29 | 1012.4 |
| 20260505200532 | 75 | 279 | 11.3 | 20.9 | 0.00 | 0.30 | 0.14 | 29 | 1012.3 |
| 20260505200039 | 74 | 269 | 12.2 | 20.9 | 0.00 | 0.30 | 0.14 | 30 | 1012.4 |
| 20260505195519 | 75 | 280 | 8.7 | 20.9 | 0.00 | 0.30 | 0.14 | 31 | 1012.4 |
| 20260505195015 | 76 | 213 | 8.7 | 22.6 | 0.00 | 0.30 | 0.14 | 33 | 1012.5 |
| 20260505194531 | 75 | 210 | 9.6 | 22.6 | 0.00 | 0.30 | 0.14 | 33 | 1012.5 |
| 20260505194026 | 74 | 252 | 12.2 | 20.9 | 0.00 | 0.30 | 0.14 | 35 | 1012.5 |
| 20260505193526 | 74 | 217 | 8.7 | 18.2 | 0.00 | 0.30 | 0.14 | 36 | 1012.6 |
| 20260505193022 | 75 | 327 | 9.6 | 15.6 | 0.00 | 0.30 | 0.14 | 36 | 1012.6 |
| 20260505192518 | 74 | 238 | 8.7 | 16.5 | 0.00 | 0.30 | 0.14 | 40 | 1012.6 |
| 20260505192013 | 74 | 229 | 6.1 | 18.2 | 0.00 | 0.30 | 0.14 | 40 | 1012.7 |
| 20260505191528 | 73 | 236 | 8.7 | 18.2 | 0.00 | 0.30 | 0.14 | 43 | 1012.7 |
| 20260505191024 | 74 | 242 | 7.8 | 17.4 | 0.00 | 0.30 | 0.14 | 43 | 1012.7 |
| 20260505190520 | 74 | 222 | 9.6 | 15.6 | 0.00 | 0.30 | 0.14 | 41 | 1012.9 |
| 20260505190031 | 73 | 231 | 8.7 | 14.8 | 0.00 | 0.30 | 0.14 | 43 | 1012.9 |
| 20260505185513 | 74 | 238 | 7.8 | 14.8 | 0.00 | 0.30 | 0.14 | 43 | 1013.0 |
| 20260505185028 | 73 | 251 | 6.1 | 14.8 | 0.00 | 0.30 | 0.14 | 45 | 1013.0 |
| 20260505184524 | 73 | 250 | 7.0 | 13.0 | 0.00 | 0.30 | 0.14 | 46 | 1013.1 |
| 20260505184020 | 73 | 265 | 3.5 | 8.7 | 0.00 | 0.30 | 0.14 | 50 | 1013.2 |
| 20260505183516 | 72 | 243 | 2.6 | 12.2 | 0.00 | 0.30 | 0.14 | 50 | 1013.4 |
| 20260505183032 | 71 | 194 | 3.5 | 12.2 | 0.00 | 0.30 | 0.14 | 49 | 1013.2 |
| 20260505182512 | 72 | 204 | 3.5 | 11.3 | 0.00 | 0.30 | 0.14 | 49 | 1013.5 |
| 20260505182028 | 70 | 111 | 2.6 | 10.4 | 0.00 | 0.30 | 0.14 | 52 | 1013.5 |
| 20260505181524 | 70 | 200 | 4.3 | 8.7 | 0.00 | 0.30 | 0.14 | 51 | 1013.5 |
| 20260505181020 | 71 | 76 | 1.7 | 4.3 | 0.00 | 0.30 | 0.14 | 51 | 1013.7 |
| 20260505180516 | 70 | 235 | 0.0 | 7.0 | 0.00 | 0.30 | 0.14 | 54 | 1013.9 |
| 20260505180044 | 70 | 232 | 1.7 | 7.0 | 0.00 | 0.30 | 0.14 | 56 | 1014.0 |
| 20260505175525 | 69 | 250 | 1.7 | 4.3 | 0.00 | 0.30 | 0.14 | 56 | 1014.0 |
| 20260505175025 | 67 | 196 | 0.9 | 3.5 | 0.00 | 0.30 | 0.14 | 57 | 1014.1 |
| 20260505174521 | 67 | 148 | 1.7 | 3.5 | 0.00 | 0.30 | 0.14 | 59 | 1014.0 |
| 20260505174017 | 66 | 148 | 0.9 | 5.2 | 0.00 | 0.30 | 0.14 | 61 | 1014.1 |
| 20260505173512 | 66 | 112 | 3.5 | 6.1 | 0.00 | 0.30 | 0.14 | 60 | 1014.0 |
| 20260505173028 | 67 | 100 | 0.9 | 3.5 | 0.00 | 0.30 | 0.14 | 61 | 1014.1 |
| 20260505172524 | 67 | 262 | 1.7 | 3.5 | 0.00 | 0.30 | 0.14 | 59 | 1014.2 |
| 20260505172020 | 67 | 281 | 0.0 | 2.6 | 0.00 | 0.30 | 0.14 | 62 | 1014.1 |
| 20260505171519 | 67 | 281 | 1.7 | 6.1 | 0.00 | 0.30 | 0.14 | 61 | 1014.2 |
| 20260505171015 | 67 | 279 | 2.6 | 6.1 | 0.00 | 0.30 | 0.14 | 62 | 1014.1 |
| 20260505170530 | 67 | 358 | 0.0 | 3.5 | 0.00 | 0.30 | 0.14 | 63 | 1014.1 |
| 20260505170038 | 66 | 358 | 0.9 | 3.5 | 0.00 | 0.30 | 0.14 | 62 | 1014.0 |
| 20260505165519 | 66 | 41 | 0.0 | 1.7 | 0.00 | 0.30 | 0.14 | 64 | 1014.0 |
| 20260505165015 | 65 | 41 | 0.0 | 2.6 | 0.00 | 0.30 | 0.14 | 65 | 1014.0 |
| 20260505164531 | 64 | 42 | 1.7 | 3.5 | 0.00 | 0.30 | 0.14 | 67 | 1014.2 |
| 20260505164027 | 65 | 66 | 0.9 | 3.5 | 0.00 | 0.30 | 0.14 | 70 | 1014.1 |
| 20260505163602 | 65 | 35 | 1.7 | 3.5 | 0.00 | 0.30 | 0.14 | 70 | 1014.0 |
| 20260505163018 | 64 | 14 | 1.7 | 3.5 | 0.00 | 0.30 | 0.14 | 70 | 1013.9 |
| 20260505162514 | 64 | 337 | 1.7 | 2.6 | 0.00 | 0.30 | 0.14 | 72 | 1013.9 |
| 20260505162030 | 63 | 330 | 0.0 | 2.6 | 0.00 | 0.30 | 0.14 | 72 | 1014.1 |
| 20260505161526 | 63 | 330 | 1.7 | 2.6 | 0.00 | 0.30 | 0.14 | 73 | 1014.1 |
| 20260505161022 | 63 | 326 | 0.0 | 2.6 | 0.00 | 0.30 | 0.14 | 73 | 1014.2 |
| 20260505160518 | 63 | 326 | 1.7 | 3.5 | 0.00 | 0.30 | 0.14 | 74 | 1014.2 |
| 20260505153031 | 63 | 263 | 0.0 | 3.5 | 0.00 | 0.30 | 0.14 | 78 | 1014.0 |
| 20260505152527 | 63 | 261 | 0.0 | 3.5 | 0.00 | 0.30 | 0.14 | 79 | 1014.0 |
| 20260505152028 | 63 | 254 | 0.0 | 3.5 | 0.00 | 0.30 | 0.14 | 82 | 1014.0 |
| 20260505151523 | 63 | 254 | 0.9 | 3.5 | 0.00 | 0.30 | 0.14 | 83 | 1013.9 |
| 20260505151019 | 62 | 251 | 0.9 | 3.5 | 0.00 | 0.30 | 0.14 | 83 | 1013.9 |
| 20260505150515 | 62 | 235 | 0.0 | 2.6 | 0.00 | 0.30 | 0.14 | 85 | 1014.0 |
| 20260505140531 | 60 | 114 | 0.0 | 0.9 | 0.00 | 0.30 | 0.14 | 91 | 1013.8 |
| 20260505125032 | 59 | 113 | 0.0 | 0.9 | 0.00 | 0.30 | 0.14 | 92 | 1012.8 |
| 20260505124528 | 59 | 113 | 0.0 | 0.9 | 0.00 | 0.30 | 0.14 | 91 | 1012.9 |
| 20260505124023 | 59 | 113 | 0.0 | 1.7 | 0.01 | 0.30 | 0.14 | 91 | 1012.8 |
| 20260505123519 | 59 | 113 | 0.0 | 1.7 | 0.01 | 0.30 | 0.14 | 91 | 1012.7 |
| 20260505123015 | 59 | 113 | 0.0 | 1.7 | 0.02 | 0.30 | 0.14 | 91 | 1012.7 |
| 20260505122531 | 58 | 113 | 0.9 | 1.7 | 0.02 | 0.30 | 0.14 | 91 | 1012.6 |
| 20260505122031 | 59 | 113 | 0.0 | 0.9 | 0.02 | 0.30 | 0.14 | 91 | 1012.5 |
| 20260505121527 | 59 | 113 | 0.0 | 0.9 | 0.02 | 0.30 | 0.14 | 91 | 1012.6 |
| 20260505121024 | 58 | 113 | 0.0 | 0.9 | 0.02 | 0.30 | 0.14 | 91 | 1012.8 |
| 20260505120519 | 58 | 113 | 0.0 | 2.6 | 0.02 | 0.30 | 0.14 | 91 | 1012.4 |
| 20260505120028 | 58 | 113 | 0.9 | 3.5 | 0.02 | 0.30 | 0.14 | 91 | 1012.3 |
| 20260505115529 | 58 | 113 | 0.9 | 3.5 | 0.02 | 0.30 | 0.14 | 91 | 1012.5 |
| 20260505115025 | 59 | 113 | 0.0 | 3.5 | 0.02 | 0.30 | 0.14 | 91 | 1012.5 |
| 20260505114525 | 59 | 113 | 0.9 | 3.5 | 0.02 | 0.30 | 0.14 | 91 | 1012.3 |
| 20260505114021 | 59 | 110 | 1.7 | 2.6 | 0.01 | 0.29 | 0.13 | 91 | 1012.4 |
| 20260505113516 | 59 | 110 | 0.9 | 2.6 | 0.01 | 0.29 | 0.13 | 91 | 1012.3 |
| 20260505113012 | 59 | 110 | 0.9 | 4.3 | 0.00 | 0.28 | 0.12 | 91 | 1012.4 |
| 20260505112528 | 59 | 120 | 1.7 | 4.3 | 0.00 | 0.28 | 0.12 | 91 | 1012.5 |
| 20260505112024 | 59 | 117 | 1.7 | 4.3 | 0.00 | 0.28 | 0.12 | 92 | 1012.9 |
| 20260505111520 | 59 | 116 | 0.9 | 2.6 | 0.00 | 0.28 | 0.12 | 92 | 1012.7 |
| 20260505111019 | 59 | 116 | 0.9 | 2.6 | 0.01 | 0.28 | 0.12 | 92 | 1012.8 |
| 20260505110515 | 59 | 116 | 0.9 | 2.6 | 0.01 | 0.28 | 0.12 | 92 | 1012.8 |
| 20260505102019 | 58 | 91 | 1.7 | 4.3 | 0.02 | 0.28 | 0.12 | 91 | 1013.0 |
| 20260505101515 | 58 | 126 | 1.7 | 3.5 | 0.03 | 0.28 | 0.12 | 91 | 1013.4 |
| 20260505101031 | 58 | 127 | 0.0 | 3.5 | 0.02 | 0.27 | 0.11 | 91 | 1013.7 |
| 20260505100527 | 58 | 129 | 0.9 | 5.2 | 0.02 | 0.27 | 0.11 | 91 | 1014.0 |
| 20260505100036 | 58 | 129 | 2.6 | 5.2 | 0.02 | 0.27 | 0.11 | 91 | 1014.0 |
| 20260505095521 | 58 | 110 | 3.5 | 7.8 | 0.02 | 0.27 | 0.11 | 91 | 1013.8 |
| 20260505095017 | 58 | 101 | 2.6 | 7.8 | 0.02 | 0.27 | 0.11 | 91 | 1013.8 |
| 20260505094513 | 58 | 98 | 3.5 | 6.1 | 0.03 | 0.27 | 0.11 | 91 | 1014.0 |
| 20260505094029 | 58 | 83 | 2.6 | 6.1 | 0.03 | 0.27 | 0.11 | 91 | 1014.0 |
| 20260505093525 | 59 | 88 | 2.6 | 3.5 | 0.03 | 0.27 | 0.11 | 91 | 1014.0 |
| 20260505093020 | 59 | 88 | 0.9 | 4.3 | 0.03 | 0.27 | 0.11 | 91 | 1014.1 |
| 20260505092516 | 59 | 94 | 2.6 | 5.2 | 0.02 | 0.26 | 0.10 | 91 | 1014.2 |
| 20260505092016 | 59 | 98 | 3.5 | 9.6 | 0.03 | 0.26 | 0.10 | 91 | 1014.1 |
| 20260505091512 | 59 | 108 | 5.2 | 10.4 | 0.02 | 0.25 | 0.09 | 91 | 1014.3 |
| 20260505091027 | 59 | 92 | 4.3 | 11.3 | 0.02 | 0.25 | 0.09 | 91 | 1014.1 |
| 20260505090524 | 59 | 111 | 6.1 | 11.3 | 0.02 | 0.25 | 0.09 | 90 | 1014.1 |
| 20260505090030 | 59 | 150 | 6.1 | 10.4 | 0.03 | 0.25 | 0.09 | 90 | 1014.2 |
| 20260505085513 | 59 | 109 | 6.1 | 9.6 | 0.03 | 0.25 | 0.09 | 91 | 1014.1 |
| 20260505085028 | 59 | 92 | 3.5 | 8.7 | 0.02 | 0.24 | 0.08 | 91 | 1014.4 |
| 20260505084528 | 59 | 108 | 3.5 | 8.7 | 0.03 | 0.24 | 0.08 | 91 | 1014.6 |
| 20260505084024 | 59 | 114 | 3.5 | 7.8 | 0.04 | 0.24 | 0.08 | 91 | 1014.7 |
| 20260505083519 | 59 | 119 | 4.3 | 7.8 | 0.04 | 0.24 | 0.08 | 91 | 1014.7 |
| 20260505083015 | 59 | 114 | 3.5 | 7.0 | 0.05 | 0.24 | 0.08 | 91 | 1015.0 |
| 20260505082530 | 59 | 98 | 3.5 | 7.0 | 0.06 | 0.24 | 0.08 | 91 | 1015.3 |
| 20260505082026 | 59 | 100 | 3.5 | 5.2 | 0.05 | 0.23 | 0.07 | 91 | 1015.6 |
| 20260505081522 | 59 | 119 | 1.7 | 5.2 | 0.06 | 0.23 | 0.07 | 91 | 1015.8 |
| 20260505081022 | 59 | 177 | 1.7 | 7.8 | 0.06 | 0.23 | 0.07 | 91 | 1015.8 |
| 20260505080517 | 59 | 85 | 3.5 | 7.8 | 0.06 | 0.23 | 0.07 | 92 | 1015.7 |
| 20260505080045 | 59 | 90 | 3.5 | 7.0 | 0.06 | 0.22 | 0.06 | 92 | 1015.9 |
| 20260505075526 | 59 | 113 | 2.6 | 6.1 | 0.06 | 0.22 | 0.06 | 92 | 1016.2 |
| 20260505075022 | 59 | 127 | 1.7 | 3.5 | 0.06 | 0.22 | 0.06 | 92 | 1016.4 |
| 20260505074518 | 59 | 129 | 1.7 | 3.5 | 0.06 | 0.21 | 0.05 | 92 | 1016.5 |
| 20260505074015 | 59 | 128 | 1.7 | 3.5 | 0.05 | 0.20 | 0.04 | 91 | 1016.5 |
| 20260505073514 | 59 | 137 | 0.9 | 1.7 | 0.06 | 0.20 | 0.04 | 91 | 1016.6 |
| 20260505073030 | 59 | 137 | 0.9 | 1.7 | 0.05 | 0.19 | 0.03 | 91 | 1016.5 |
| 20260505072527 | 59 | 137 | 0.0 | 2.6 | 0.05 | 0.18 | 0.02 | 91 | 1016.7 |
| 20260505072023 | 59 | 137 | 0.9 | 2.6 | 0.05 | 0.18 | 0.02 | 90 | 1016.4 |
| 20260505071519 | 59 | 137 | 0.9 | 2.6 | 0.05 | 0.17 | 0.01 | 90 | 1016.4 |
| 20260505071014 | 59 | 140 | 0.9 | 2.6 | 0.05 | 0.17 | 0.01 | 90 | 1016.5 |
| 20260505070530 | 59 | 142 | 0.0 | 2.6 | 0.06 | 0.17 | 0.01 | 90 | 1016.4 |
| 20260505070037 | 59 | 142 | 0.9 | 2.6 | 0.05 | 0.16 | 0.00 | 90 | 1016.3 |
| 20260505065523 | 59 | 143 | 0.0 | 1.7 | 0.05 | 0.16 | 0.16 | 90 | 1016.2 |
| 20260505065018 | 59 | 143 | 0.9 | 1.7 | 0.06 | 0.16 | 0.16 | 90 | 1016.2 |
| 20260505064514 | 59 | 144 | 0.9 | 1.7 | 0.05 | 0.15 | 0.15 | 90 | 1016.2 |
| 20260505064030 | 59 | 144 | 0.0 | 4.3 | 0.05 | 0.15 | 0.15 | 89 | 1016.4 |
| 20260505063526 | 59 | 144 | 0.9 | 4.3 | 0.04 | 0.14 | 0.14 | 88 | 1016.3 |
| 20260505063021 | 59 | 148 | 2.6 | 3.5 | 0.05 | 0.14 | 0.14 | 88 | 1016.2 |
| 20260505062517 | 59 | 97 | 1.7 | 3.5 | 0.04 | 0.13 | 0.13 | 88 | 1016.3 |
| 20260505062017 | 59 | 85 | 0.0 | 0.9 | 0.05 | 0.13 | 0.13 | 88 | 1016.3 |
| 20260505061513 | 59 | 85 | 0.0 | 0.9 | 0.04 | 0.12 | 0.12 | 89 | 1016.2 |
| 20260505061028 | 59 | 85 | 0.0 | 1.7 | 0.05 | 0.12 | 0.12 | 89 | 1016.2 |
| 20260505060524 | 59 | 85 | 0.0 | 2.6 | 0.04 | 0.11 | 0.11 | 88 | 1016.1 |
| 20260505060033 | 59 | 85 | 0.9 | 3.5 | 0.04 | 0.11 | 0.11 | 88 | 1016.0 |
| 20260505055514 | 59 | 86 | 0.9 | 3.5 | 0.04 | 0.11 | 0.11 | 88 | 1015.9 |
| 20260505055030 | 58 | 90 | 1.7 | 3.5 | 0.04 | 0.10 | 0.10 | 89 | 1015.9 |
| 20260505054529 | 58 | 159 | 0.9 | 1.7 | 0.04 | 0.10 | 0.10 | 88 | 1015.9 |
| 20260505054025 | 58 | 159 | 0.0 | 3.5 | 0.05 | 0.10 | 0.10 | 88 | 1015.9 |
| 20260505053521 | 58 | 159 | 0.9 | 3.5 | 0.04 | 0.09 | 0.09 | 87 | 1015.8 |
| 20260505053017 | 58 | 175 | 0.9 | 4.3 | 0.04 | 0.09 | 0.09 | 87 | 1015.9 |
| 20260505052513 | 58 | 193 | 0.9 | 4.3 | 0.04 | 0.09 | 0.09 | 87 | 1015.9 |
| 20260505052028 | 58 | 140 | 1.7 | 8.7 | 0.04 | 0.08 | 0.08 | 87 | 1015.7 |
| 20260505051524 | 58 | 138 | 1.7 | 7.0 | 0.04 | 0.08 | 0.08 | 87 | 1015.8 |
| 20260505051023 | 58 | 132 | 2.6 | 7.0 | 0.03 | 0.07 | 0.07 | 86 | 1015.6 |
| 20260505050518 | 58 | 151 | 1.7 | 3.5 | 0.03 | 0.07 | 0.07 | 85 | 1015.7 |
| 20260505041519 | 58 | 198 | 0.0 | 0.9 | 0.01 | 0.04 | 0.04 | 82 | 1016.2 |
| 20260505041015 | 58 | 198 | 0.0 | 0.9 | 0.01 | 0.04 | 0.04 | 81 | 1016.3 |
| 20260505040531 | 59 | 198 | 0.0 | 0.9 | 0.01 | 0.04 | 0.04 | 81 | 1016.2 |
| 20260505040038 | 59 | 198 | 0.0 | 1.7 | 0.01 | 0.04 | 0.04 | 77 | 1016.3 |
| 20260505035523 | 59 | 197 | 0.0 | 0.9 | 0.01 | 0.04 | 0.04 | 75 | 1016.2 |
| 20260505035019 | 60 | 197 | 0.0 | 1.7 | 0.00 | 0.03 | 0.03 | 71 | 1016.2 |
| 20260505034515 | 60 | 197 | 0.0 | 2.6 | 0.00 | 0.03 | 0.03 | 69 | 1016.0 |
| 20260505034030 | 60 | 173 | 0.9 | 6.1 | 0.00 | 0.03 | 0.03 | 68 | 1015.8 |
| 20260505033526 | 60 | 133 | 0.9 | 6.1 | 0.00 | 0.03 | 0.03 | 67 | 1015.5 |
| 20260505033022 | 60 | 123 | 1.7 | 7.8 | 0.00 | 0.03 | 0.03 | 68 | 1015.4 |
| 20260505032518 | 60 | 111 | 3.5 | 7.8 | 0.00 | 0.03 | 0.03 | 67 | 1015.1 |
| 20260505032017 | 60 | 144 | 3.5 | 10.4 | 0.00 | 0.03 | 0.03 | 67 | 1015.2 |
| 20260505031513 | 60 | 123 | 3.5 | 10.4 | 0.00 | 0.03 | 0.03 | 67 | 1015.2 |
| 20260505031029 | 60 | 100 | 6.1 | 10.4 | 0.00 | 0.03 | 0.03 | 66 | 1015.2 |
| 20260505030525 | 61 | 118 | 7.0 | 10.4 | 0.01 | 0.03 | 0.03 | 65 | 1015.1 |
| 20260505030033 | 61 | 116 | 6.1 | 11.3 | 0.01 | 0.03 | 0.03 | 64 | 1015.1 |